[[{"header":{"parameterUnit":"m.s-1","parameterCategory":1,"la1":30.2991,"la2":30.254,"lo1":-89.0895,"lo2":-89.0444,"dy":0.0017,"dx":0.0017,"nx":28,"ny":28,"refTime":"2024-02-09T09:00:00:Z","depth":0,"parameterNumber":2,"parameterNumberName":"U-component_of_WINDS"},"data":[0,0,0,0,0,0,0,0,0,0,0,0,0,0,0,0,0,0,0,0,0,0,0,0,0,0,0,0,0,0,0,0,0,0,0,0,0,0,0,0,0,0,0,0,0,0,0,0,0,0,0,0,0,0,0,0,0,0,-2.2553,-2.2555,0,-2.2723,-2.2725,-2.2727,-2.2794,-2.2794,-2.2793,-2.2793,-2.2969,-2.2974,-2.2979,0,0,0,0,0,0,0,0,0,0,0,0,0,-2.229,-2.2295,-2.2553,-2.2555,-2.2557,-2.2723,-2.2725,-2.2727,-2.2794,-2.2794,-2.2793,-2.2793,-2.2967,-2.2973,-2.2979,0,0,0,0,0,0,0,0,0,0,0,0,0,-2.2427,-2.2296,-2.2553,-2.2611,-2.2618,-2.2722,-2.2725,-2.2728,-2.2794,-2.2794,-2.2793,-2.2792,-2.2965,-2.2972,-2.298,-2.304,0,0,-2.3003,-2.3007,0,0,0,0,0,0,0,0,-2.2419,-2.2436,-2.26,-2.2607,-2.2615,-2.2737,-2.2697,-2.2833,-2.2795,-2.2727,-2.2793,-2.2792,-2.2892,-2.2906,-2.2939,-2.3049,-2.3056,-2.3004,-2.3009,-2.3012,-2.3014,0,0,0,0,0,0,0,-2.2409,-2.2429,-2.2621,-2.2602,-2.2611,-2.2629,-2.2648,-2.2723,-2.2811,-2.2733,-2.2738,-2.2757,-2.2896,-2.2932,-2.2944,-2.3059,-2.3004,-2.3011,-2.3015,-2.3018,-2.3227,-2.3228,0,0,0,0,0,0,-2.239,-2.2421,-2.2615,-2.2626,-2.2513,-2.2635,-2.2655,-2.2698,-2.2811,-2.2827,-2.2758,-2.276,-2.2919,-2.2935,-2.295,-2.3029,-2.3012,-2.3019,-2.3023,-2.3226,-2.3228,-2.3229,0,0,0,0,0,0,-2.2384,-2.2407,-2.2608,-2.2525,-2.2552,-2.264,-2.2687,-2.2702,-2.2738,-2.2829,-2.2846,-2.2778,-2.2919,-2.2939,-2.3018,-2.3036,-2.3022,-2.3029,-2.3225,-2.3227,-2.3228,-2.3185,0,0,0,0,0,0,-2.2376,-2.2404,-2.2427,-2.2525,-2.2556,-2.2672,-2.2689,-2.2706,-2.275,-2.2755,-2.2852,-2.2868,-2.292,-2.3006,-2.3025,-2.3046,-2.3035,-2.3224,-2.3226,-2.3228,-2.3185,-2.3185,-2.3185,0,0,0,0,0,-2.2366,-2.2408,-2.2428,-2.2451,-2.2586,-2.2672,-2.2691,-2.2749,-2.2751,-2.2776,-2.2835,-2.2865,-2.3031,-2.3013,-2.3036,-2.3059,-2.3223,-2.3225,-2.3228,-2.3186,-2.3185,-2.3185,0,0,0,0,0,0,-2.2311,-2.2422,-2.2445,-2.2519,-2.2586,-2.2684,-2.2716,-2.2747,-2.2814,-2.2816,-2.2886,-2.2908,-2.298,-2.3028,-2.3006,-2.3124,-2.3129,-2.3136,-2.309,-2.309,-2.309,-2.3076,-2.3042,0,0,0,0,0,-2.2307,-2.2367,-2.2461,-2.2518,-2.255,-2.2627,-2.2667,-2.2706,-2.2778,-2.2807,-2.2872,-2.2941,-2.301,-2.3053,-2.312,-2.3193,-2.3216,-2.322,-2.322,-2.3219,-2.3224,-2.3267,-2.327,-2.3236,-2.3236,-2.3236,0,0,-2.23,-2.2369,-2.2402,-2.2509,-2.2565,-2.2626,-2.265,-2.2714,-2.276,-2.2817,-2.2894,-2.2945,-2.3027,-2.3103,-2.314,-2.3145,-2.3239,-2.3222,-2.3221,-2.3226,-2.327,-2.3273,-2.3275,-2.3237,-2.3237,-2.3237,0,0,-2.2319,-2.2376,-2.243,-2.2486,-2.257,-2.2622,-2.2634,-2.2728,-2.2763,-2.2842,-2.2886,-2.2943,-2.3058,-2.3115,-2.3159,-2.3201,-2.3231,-2.3221,-2.3219,-2.326,-2.3263,-2.3265,-2.328,-2.3285,-2.3226,-2.3226,-2.3226,0,-2.23,-2.2393,-2.2454,-2.2515,-2.2561,-2.2615,-2.2671,-2.2722,-2.2825,-2.2856,-2.286,-2.3007,-2.3066,-2.3156,-2.3166,-2.32,-2.3218,-2.321,-2.3257,-2.3261,-2.3264,-2.3279,-2.3284,-2.3224,-2.3224,-2.3224,-2.3225,0,-2.2365,-2.2429,-2.2463,-2.2559,-2.2609,-2.2667,-2.2739,-2.2782,-2.2818,-2.2869,-2.2949,-2.3022,-2.3106,-2.313,-2.3166,-2.3226,-2.3227,-2.3243,-2.325,-2.3264,-2.328,-2.3286,-2.3221,-2.3222,-2.3223,-2.3223,0,0,-2.2352,-2.2483,-2.2494,-2.2539,-2.2637,-2.2688,-2.2749,-2.283,-2.2866,-2.2936,-2.2989,-2.3086,-2.3103,-2.3153,-2.3195,-2.3231,-2.326,-2.3244,-2.3247,-2.3244,-2.3331,-2.3318,-2.3323,-2.3281,-2.3282,-2.3283,-2.3324,0,-2.2383,-2.2494,-2.2551,-2.2638,-2.2698,-2.2751,-2.2805,-2.2871,-2.2921,-2.298,-2.3036,-2.3103,-2.3119,-2.315,-2.3188,-2.3248,-2.3278,-2.3246,-2.3332,-2.3334,-2.3308,-2.3331,-2.3317,-2.3352,-2.3331,-2.3332,-2.3333,0,-2.2434,-2.2502,-2.2594,-2.2686,-2.2713,-2.276,-2.284,-2.2895,-2.2973,-2.3006,-2.3062,-2.3105,-2.3172,-2.3175,-2.327,-2.3246,-2.3285,-2.332,-2.3323,-2.3333,-2.3333,-2.3341,-2.3365,-2.3369,-2.3343,-2.3342,-2.3341,0,-2.2415,-2.253,-2.26,-2.2637,-2.2746,-2.2777,-2.2824,-2.2901,-2.2946,-2.3016,-2.3047,-2.3124,-2.3166,-2.3225,-2.3288,-2.3284,-2.3377,-2.3384,-2.3407,-2.3405,-2.3423,-2.3421,-2.3453,-2.3449,-2.3449,-2.3449,-2.3449,0,-2.2444,-2.2498,-2.2593,-2.2636,-2.2699,-2.2765,-2.2826,-2.2877,-2.2945,-2.3,-2.3051,-2.3101,-2.3181,-2.3242,-2.3291,-2.3363,-2.3382,-2.3411,-2.3424,-2.3406,-2.3402,-2.3432,-2.3431,-2.3451,-2.345,-2.345,-2.345,0,-2.2433,-2.2498,-2.2578,-2.2674,-2.27,-2.2742,-2.2825,-2.287,-2.2922,-2.2991,-2.3011,-2.3094,-2.3169,-2.3237,-2.3336,-2.337,-2.3442,-2.3458,-2.3415,-2.3422,-2.3441,-2.3438,-2.3492,-2.3502,-2.3491,-2.3491,-2.3491,0,-2.2446,-2.2489,-2.259,-2.263,-2.2675,-2.2739,-2.2786,-2.2854,-2.29,-2.2992,-2.3025,-2.3103,-2.3169,-2.3286,-2.3356,-2.3432,-2.345,-2.3464,-2.3462,-2.3443,-2.345,-2.3447,-2.3451,-2.3463,-2.3462,-2.3462,-2.3462,0,-2.2463,-2.2494,-2.2558,-2.2634,-2.2688,-2.2752,-2.2817,-2.2847,-2.2928,-2.2978,-2.3054,-2.3105,-2.3207,-2.3284,-2.3368,-2.3418,-2.3454,-2.3462,-2.3472,-2.3454,-2.3427,-2.3442,-2.3412,-2.3461,-2.3461,-2.3461,-2.3461,-2.3461,-2.2465,-2.2506,-2.2583,-2.2653,-2.2709,-2.2769,-2.2816,-2.2874,-2.2939,-2.3026,-2.3063,-2.314,-2.3218,-2.3335,-2.3384,-2.3447,-2.3454,-2.3468,-2.3471,-2.3473,-2.347,-2.3418,-2.3463,-2.3463,-2.3463,-2.3463,-2.3463,0,-2.2484,-2.2537,-2.2601,-2.269,-2.2746,-2.2774,-2.2848,-2.2893,-2.296,-2.3029,-2.3093,-2.3181,-2.3257,-2.3333,-2.3412,-2.3448,-2.3466,-2.3467,-2.3464,-2.3475,-2.3459,-2.3442,-2.345,-2.345,-2.345,-2.345,-2.345,-2.345,-2.2501,-2.2571,-2.2611,-2.271,-2.2763,-2.2838,-2.2878,-2.2934,-2.299,-2.3085,-2.3148,-2.3197,-2.3269,-2.3355,-2.3425,-2.3446,-2.3473,-2.3468,-2.3493,-2.3476,-2.3476,-2.3477,-2.3462,-2.3474,-2.3474,-2.3505,-2.3505,-2.3506]},{"header":{"parameterUnit":"m.s-1","parameterCategory":1,"la1":30.2991,"la2":30.254,"lo1":-89.0895,"lo2":-89.0444,"dy":0.0017,"dx":0.0017,"nx":28,"ny":28,"refTime":"2024-02-09T09:00:00:Z","depth":0,"parameterNumber":3,"parameterNumberName":"V-component_of_WINDS"},"data":[0,0,0,0,0,0,0,0,0,0,0,0,0,0,0,0,0,0,0,0,0,0,0,0,0,0,0,0,0,0,0,0,0,0,0,0,0,0,0,0,0,0,0,0,0,0,0,0,0,0,0,0,0,0,0,0,0,0,4.0242,4.0243,0,4.0317,4.0317,4.0318,4.0306,4.0305,4.0303,4.0302,4.0382,4.0385,4.0389,0,0,0,0,0,0,0,0,0,0,0,0,0,4.0094,4.0097,4.0242,4.0243,4.0244,4.0316,4.0317,4.0318,4.0306,4.0305,4.0303,4.0302,4.0381,4.0385,4.0389,0,0,0,0,0,0,0,0,0,0,0,0,0,4.0163,4.0098,4.0242,4.0246,4.0248,4.0316,4.0318,4.0319,4.0307,4.0305,4.0303,4.0301,4.038,4.0385,4.0389,4.0459,0,0,4.0405,4.0407,0,0,0,0,0,0,0,0,4.0159,4.0168,4.0245,4.0246,4.0248,4.03,4.0295,4.0366,4.0307,4.0284,4.0302,4.03,4.0357,4.0363,4.0382,4.0463,4.0467,4.0405,4.0408,4.041,4.0412,0,0,0,0,0,0,0,4.0154,4.0165,4.0272,4.0246,4.0248,4.0246,4.0254,4.0308,4.0331,4.0286,4.0285,4.0294,4.0357,4.0377,4.0384,4.0468,4.0405,4.041,4.0413,4.0415,4.0614,4.0616,0,0,0,0,0,0,4.0147,4.0161,4.0269,4.0274,4.0197,4.0251,4.0259,4.0285,4.033,4.0335,4.0296,4.0293,4.0369,4.0378,4.0386,4.0473,4.041,4.0415,4.0418,4.0611,4.0614,4.0617,0,0,0,0,0,0,4.0144,4.0157,4.0266,4.0217,4.0231,4.0255,4.0285,4.0288,4.0308,4.0337,4.0342,4.0312,4.0368,4.0379,4.0442,4.0476,4.0417,4.0422,4.0609,4.0612,4.0615,4.0646,0,0,0,0,0,0,4.014,4.0156,4.0182,4.0218,4.0234,4.0319,4.0287,4.0291,4.0316,4.0313,4.0353,4.0358,4.0367,4.0434,4.0447,4.0482,4.0426,4.0606,4.061,4.0614,4.0642,4.065,4.0657,0,0,0,0,0,4.0135,4.0187,4.0183,4.0196,4.0266,4.0321,4.033,4.0339,4.0318,4.0346,4.0365,4.0357,4.047,4.0441,4.0455,4.0492,4.0604,4.0609,4.0614,4.0639,4.0649,4.0657,0,0,0,0,0,0,4.0155,4.0192,4.0188,4.0253,4.0284,4.0319,4.0353,4.0348,4.0387,4.0383,4.0393,4.0402,4.0466,4.0485,4.0452,4.0563,4.0534,4.0542,4.0549,4.0558,4.0565,4.056,4.043,0,0,0,0,0,4.0167,4.0208,4.0238,4.0293,4.0309,4.0328,4.0353,4.0357,4.039,4.0403,4.0427,4.046,4.0503,4.0531,4.0573,4.0645,4.0655,4.0677,4.0685,4.0691,4.0698,4.074,4.0752,4.0633,4.0633,4.0633,0,0,4.0193,4.0218,4.0243,4.0298,4.0323,4.0366,4.0339,4.0386,4.0419,4.041,4.0471,4.049,4.0528,4.0596,4.0627,4.0614,4.0733,4.0697,4.0702,4.0706,4.0747,4.0758,4.0768,4.0637,4.0636,4.0636,0,0,4.0262,4.0284,4.0334,4.0359,4.0396,4.0408,4.042,4.0456,4.0468,4.0529,4.0524,4.0565,4.0638,4.0666,4.069,4.0772,4.0767,4.0785,4.0824,4.0866,4.0875,4.0883,4.0915,4.0926,4.0792,4.0792,4.0792,0,4.029,4.0353,4.036,4.0408,4.0433,4.0427,4.0478,4.0503,4.0552,4.0571,4.0554,4.0648,4.0673,4.0749,4.0769,4.0788,4.0804,4.0781,4.0873,4.0881,4.0889,4.0919,4.0931,4.0794,4.0794,4.0794,4.0794,0,4.0387,4.0431,4.0467,4.0514,4.0544,4.0593,4.0609,4.0639,4.0641,4.0656,4.0719,4.0749,4.0798,4.0816,4.0818,4.0893,4.0884,4.087,4.0841,4.0902,4.0931,4.0943,4.0797,4.0797,4.0796,4.0795,0,0,4.0471,4.0522,4.0535,4.0558,4.0598,4.0634,4.0684,4.073,4.0757,4.0791,4.0835,4.0898,4.0886,4.0914,4.0919,4.0955,4.1021,4.0937,4.0939,4.0954,4.1109,4.1121,4.1134,4.1018,4.102,4.1022,4.1107,0,4.0546,4.0633,4.0641,4.072,4.0763,4.0758,4.0803,4.0834,4.085,4.089,4.0907,4.0953,4.0933,4.0949,4.0985,4.1006,4.1053,4.0999,4.1061,4.1063,4.1054,4.1148,4.116,4.1239,4.1118,4.112,4.1121,0,4.0645,4.0682,4.0765,4.0802,4.082,4.0859,4.0904,4.0941,4.0978,4.0987,4.1018,4.1019,4.1074,4.1042,4.1118,4.1082,4.1107,4.1122,4.1125,4.1133,4.1097,4.1161,4.1264,4.1277,4.1138,4.1137,4.1136,0,4.0701,4.0771,4.0831,4.085,4.0894,4.0922,4.0942,4.0976,4.1004,4.1044,4.1063,4.1108,4.1133,4.1169,4.1184,4.1159,4.126,4.1229,4.1272,4.1272,4.1295,4.1293,4.1406,4.1308,4.1308,4.1307,4.1307,0,4.0784,4.0836,4.0857,4.0894,4.0952,4.0962,4.1021,4.1039,4.107,4.1112,4.1111,4.1151,4.1166,4.121,4.1221,4.1284,4.1295,4.1306,4.1309,4.1307,4.1306,4.1326,4.1321,4.1311,4.131,4.1309,4.1309,0,4.0857,4.0873,4.0938,4.0974,4.0985,4.1027,4.1059,4.1096,4.1111,4.1165,4.1178,4.1203,4.1254,4.1272,4.1333,4.1342,4.1416,4.1413,4.1403,4.1404,4.1447,4.1443,4.1577,4.1596,4.1484,4.1485,4.1486,0,4.091,4.095,4.0991,4.1019,4.104,4.1084,4.1113,4.1125,4.1155,4.12,4.1232,4.1283,4.1323,4.1405,4.143,4.1478,4.1478,4.1522,4.1485,4.1483,4.1482,4.148,4.1485,4.1529,4.153,4.1531,4.1532,0,4.1004,4.101,4.1051,4.1096,4.113,4.1165,4.12,4.1223,4.1241,4.1275,4.1327,4.1359,4.1422,4.1473,4.1522,4.1545,4.1543,4.1543,4.1556,4.1556,4.1549,4.1556,4.1424,4.154,4.1539,4.1539,4.1538,4.1538,4.1071,4.1107,4.1141,4.1188,4.1215,4.1248,4.1285,4.1305,4.1348,4.14,4.1404,4.1461,4.1499,4.1564,4.1589,4.1635,4.1623,4.1641,4.1646,4.1651,4.1656,4.154,4.1644,4.1644,4.1644,4.1643,4.1643,0,4.1166,4.1189,4.1231,4.1279,4.1317,4.1309,4.1348,4.138,4.1429,4.1464,4.1504,4.1565,4.1615,4.1644,4.1695,4.1726,4.1726,4.1739,4.1738,4.1744,4.1662,4.1647,4.1738,4.1738,4.1738,4.1738,4.1738,4.1738,4.1221,4.1282,4.1292,4.1368,4.1391,4.1445,4.1468,4.1499,4.1527,4.1595,4.1636,4.1654,4.1687,4.1741,4.1787,4.1794,4.1814,4.1828,4.1835,4.1759,4.1749,4.174,4.1726,4.1832,4.1832,4.1914,4.1914,4.1915]}]]